ROMMA est une association bénévole à but non lucratif. Votre soutien est indispensable : ADHERER à ROMMA ou FAIRE un DON

Le Versoud - (38, Isère)

Vallée du Grésivaudan (220 m)   Longitude: 05° 51' 44" E   Latitude: 45° 13' 06" N Station partenaire n°6
 

Détail journalier du     <<     >>

Température Humidité Pression Vent Dir Rafale Dir. rafale Ensol.
Heure (°C) (%) (hPa) (km/h) (km/h) (min)
01:00 22.680101600---0
02:00 21.986101602NO0
03:00 21.487101600---0
04:00 20.790101600---0
05:00 20.291101600---0
06:00 19.891101700---0
07:00 19.890101800---0
08:00 21.983101800---55
09:00 23.975101800---60
10:00 25.469101800---60
11:00 27.162101802NNO60
12:00 28.858101802NNO60
13:00 30.657101702NNO35
14:00 30.457101705NNO15
15:00 32.04810171OSO11O20
16:00 33.647101608SO25
17:00 32.847101606SO35
18:00 33.844101606SO60
19:00 33.546101706SO60
20:00 32.458101702SSO50
21:00 29.661101800---10
22:00 27.769101800---0
23:00 26.173101900---0
minuit 25.079102000---0

Graphique du 25-06-2019

 

Serveur OMMA